Regional Weather Roundup
Issued by NWS Northern Indiana

Home | Current Version | Previous Version | Graphics & Text | Print | Product List | Glossary On
Versions: 1 2 3 4 5 6 7 8 9 10 11 12 13 14 15 16 17 18 19 20 21 22 23 24 25 26 27 28 29 30 31 32 33 34 35 36 37 38 39 40 41 42 43 44 45 46 47 48 49 50
000
ASUS43 KIWX 290410
RWRIWX

KIWX WEATHER ROUNDUP
NATIONAL WEATHER SERVICE NORTHERN INDIANA
1200 AM EDT SUN MAR 29 2015

NOTE: "FAIR" INDICATES FEW OR NO CLOUDS BELOW 12,000 FEET WITH NO
SIGNIFICANT WEATHER AND/OR OBSTRUCTIONS TO VISIBILITY.

* THESE STATIONS ARE NOT UNDER NWS QUALITY CONTROL. THEY ALSO MAY NOT
  REPORT WEATHER SUCH AS PRECIPITATION OR FOG.

INZ001>027-290500-
NORTHERN INDIANA

CITY           SKY/WX    TMP DP  RH WIND       PRES   REMARKS
GARY*          CLEAR     26  10  50 SE3       30.31F
VALPARAISO     CLEAR     23  12  62 CALM      30.32S
MICHIGAN CITY* CLEAR     21  12  68 CALM      30.32S
LAPORTE*       CLEAR     21  17  83 CALM      30.32S
KNOX*            N/A     23   9  54 CALM      30.32S
SOUTH BEND     CLEAR     21  13  71 CALM      30.32S
GOSHEN         CLEAR     24  15  68 CALM      30.31S
MONTICELLO*    CLEAR     28  16  59 CALM      30.32S
LOGANSPORT*    CLEAR     27  21  80 S6        30.33S WCI  20
ROCHESTER*     CLEAR     32  19  59 S5        30.32S WCI  27
WARSAW*        CLEAR     23  16  74 CALM      30.31F
ANGOLA*        CLEAR     23  12  63 CALM      30.30R
FORT WAYNE     CLEAR     25  18  74 SW7       30.33R WCI  17
HUNTINGTON*    CLEAR     28  10  48 SW3       30.32S
PERU/GRISSOM   CLEAR     26  17  68 S5        30.31S WCI  20
MARION*        CLEAR     25  19  77 S3        30.33F

$$
INZ028>050-290500-
CENTRAL INDIANA

CITY           SKY/WX    TMP DP  RH WIND       PRES   REMARKS
LAFAYETTE      CLEAR     25  14  63 CALM      30.34R
KOKOMO*          N/A     25  19  80 S5        30.33S WCI  19
MUNCIE*        CLEAR     27  14  58 S3        30.33S
INDIANAPOLIS   CLEAR     30  12  47 E5        30.33R WCI  25

$$
MIZ043>046-050>051-056>058-064>065-071>073-077>080-290500-
SOUTHWEST LOWER MICHIGAN

CITY           SKY/WX    TMP DP  RH WIND       PRES   REMARKS
BATTLE CREEK   CLEAR     25  12  58 S3        30.30S
BENTON HARBOR  CLEAR     16  11  80 CALM      30.31S
COLDWATER*     CLEAR     20  13  74 CALM      30.30S
HILLSDALE*     CLEAR     24   9  53 CALM      30.28R
HOLLAND        CLEAR     21  12  68 S6        30.30S WCI  13
GRAND RAPIDS   CLEAR     21  10  62 S3        30.29F
KALAMAZOO      CLEAR     25  11  55 CALM      30.30S
STURGIS*       CLEAR     25  12  58 CALM      30.30S
THREE RIVERS*  FAIR      23  13  66 CALM      30.32R

$$
OHZ001>008-015>018-024>025-290500-
NORTHWEST OHIO

CITY           SKY/WX    TMP DP  RH WIND       PRES   REMARKS
WAUSEON*       FAIR      27  12  54 SW5       30.31R WCI  21
DEFIANCE       CLEAR     26  14  60 S5        30.32S WCI  20
FINDLAY        CLEAR     24  16  71 SW6       30.31S WCI  17
TOLEDO EXPRESS CLEAR     25  12  58 SW5       30.31S WCI  19
TOLEDO METCALF CLEAR     25  14  63 SW6       30.33R WCI  18
LIMA           CLEAR     27  15  61 S6        30.31F WCI  20

$$
AND FOR LAKE MICHIGAN COASTAL AND OPEN LAKE BUOY OBSERVATIONS

STATION/POSITION TEMP    WIND        PRES    VSBY  WAVE
                 AIR SEA DIR/SP/G                  HT/PER
                 (F)     (DEG/KT/KT) (MB)    (MI)  (FT/S)
CALUMET HARBOR    28     150/  5/  7 1024.6F
MICHIGAN CITY     24     120/  7/  8   N/A
BURNS HARBOR      27     130/  2/  4 1027.1R
SAINT JOSEPH      23     110/  3/  5 1026.8F

$$
&&



USA.gov is the U.S. government's official web portal to all federal, state and local government web resources and services.